EW3591 Weather Reports


Display with metric or nautical units.
time (UTC)temp
F
wind
direction
speed
MPH
gust
MPH
rain 1hr
in
rain 24hr
in
rain mn
in
humidity
%
barometer
mb
20210307014334 23 162 1.0 5.0 0.00 0.00 0.00 65 1023.4
20210307014131 23 102 1.0 5.0 0.00 0.00 0.00 65 1023.4
20210307013932 23 148 1.0 5.0 0.00 0.00 0.00 65 1023.4
20210307013537 23 56 1.0 4.0 0.00 0.00 0.00 64 1023.4
20210307013336 24 121 1.0 5.0 0.00 0.00 0.00 64 1023.4
20210307013129 24 121 1.0 5.0 0.00 0.00 0.00 64 1023.3
20210307012929 24 133 1.0 5.0 0.00 0.00 0.00 64 1023.3
20210307012807 24 46 1.0 5.0 0.00 0.00 0.00 64 1023.3
20210307012547 24 101 1.0 4.0 0.00 0.00 0.00 64 1023.2
20210307012305 24 126 1.0 4.0 0.00 0.00 0.00 64 1023.2
20210307012022 24 93 1.0 4.0 0.00 0.00 0.00 64 1023.2
20210307011736 24 67 1.0 4.0 0.00 0.00 0.00 65 1023.1
20210307011331 24 76 1.0 3.0 0.00 0.00 0.00 65 1023.2
20210307011130 24 100 1.0 4.0 0.00 0.00 0.00 65 1023.1
20210307010926 24 78 1.0 4.0 0.00 0.00 0.00 65 1023.1
20210307010726 24 268 1.0 4.0 0.00 0.00 0.00 65 1023.1
20210307010525 24 287 1.0 4.0 0.00 0.00 0.00 65 1023.1
20210307010330 24 19 1.0 4.0 0.00 0.00 0.00 65 1023.2
20210307010212 24 115 1.0 4.0 0.00 0.00 0.00 65 1023.1
20210307010106 24 203 1.0 4.0 0.00 0.00 0.00 65 1023.2
20210307005956 24 97 1.0 5.0 0.00 0.00 0.00 65 1023.2
20210307005831 24 180 1.0 9.0 0.00 0.00 0.00 65 1023.2
20210307005750 24 150 1.0 9.0 0.00 0.00 0.00 65 1023.1
20210307005615 24 170 1.0 9.0 0.00 0.00 0.00 65 1023.0
20210307005148 24 145 2.0 9.0 0.00 0.00 0.00 65 1023.1
20210307004741 24 193 1.0 9.0 0.00 0.00 0.00 65 1023.0
20210307004318 24 32 1.0 5.0 0.00 0.00 0.00 64 1023.1
20210307004120 24 123 1.0 5.0 0.00 0.00 0.00 64 1023.0
20210307003918 24 188 1.0 5.0 0.00 0.00 0.00 64 1023.1
20210307003718 24 58 1.0 5.0 0.00 0.00 0.00 64 1023.0
20210307003529 24 233 1.0 5.0 0.00 0.00 0.00 64 1023.1
20210307003320 24 121 1.0 7.0 0.00 0.00 0.00 64 1023.0
20210307003117 24 124 2.0 7.0 0.00 0.00 0.00 64 1023.0
20210307002917 24 128 1.0 8.0 0.00 0.00 0.00 63 1022.9
20210307002826 25 27 2.0 11.0 0.00 0.00 0.00 63 1023.0
20210307002143 25 81 3.0 11.0 0.00 0.00 0.00 62 1023.0
20210307001525 25 95 2.0 7.0 0.00 0.00 0.00 62 1022.9
20210307001140 25 95 2.0 6.0 0.00 0.00 0.00 62 1022.9
20210307000919 25 95 2.0 6.0 0.00 0.00 0.00 62 1022.9
20210307000746 25 74 1.0 5.0 0.00 0.00 0.00 61 1022.9
20210307000647 25 86 2.0 6.0 0.00 0.00 0.00 61 1022.9
20210307000553 25 91 1.0 7.0 0.00 0.00 0.00 61 1022.8
20210307000340 25 31 2.0 8.0 0.00 0.00 0.00 61 1022.8
20210307000136 25 71 3.0 8.0 0.00 0.00 0.00 61 1022.8
20210307000049 25 78 3.0 8.0 0.00 0.00 0.00 60 1022.7
20210307000021 25 56 3.0 8.0 0.00 0.00 0.00 60 1022.7
20210306235859 25 72 3.0 10.0 0.00 0.00 0.00 60 1022.7
20210306235338 25 118 2.0 10.0 0.00 0.00 0.00 60 1022.7
20210306234953 25 38 3.0 10.0 0.00 0.00 0.00 59 1022.6
20210306234719 25 53 3.0 10.0 0.00 0.00 0.00 59 1022.6
20210306234527 25 73 3.0 10.0 0.00 0.00 0.00 59 1022.5
20210306234311 25 124 3.0 9.0 0.00 0.00 0.00 59 1022.5
20210306234108 25 136 3.0 9.0 0.00 0.00 0.00 58 1022.5
20210306233908 25 70 2.0 9.0 0.00 0.00 0.00 58 1022.6
20210306233710 26 106 2.0 6.0 0.00 0.00 0.00 58 1022.5
20210306233528 26 111 2.0 7.0 0.00 0.00 0.00 58 1022.5
20210306233311 26 111 2.0 11.0 0.00 0.00 0.00 58 1022.5
20210306233128 26 106 2.0 11.0 0.00 0.00 0.00 58 1022.5
20210306233042 26 158 2.0 11.0 0.00 0.00 0.00 58 1022.3
20210306232939 26 23 3.0 11.0 0.00 0.00 0.00 58 1022.4
20210306232902 26 67 3.0 11.0 0.00 0.00 0.00 58 1022.4
20210306232813 26 22 3.0 8.0 0.00 0.00 0.00 58 1022.3
20210306232533 26 347 3.0 8.0 0.00 0.00 0.00 58 1022.3
20210306232136 26 72 1.0 6.0 0.00 0.00 0.00 58 1022.3
20210306231707 26 61 2.0 6.0 0.00 0.00 0.00 58 1022.2
20210306231537 26 50 2.0 6.0 0.00 0.00 0.00 57 1022.1
20210306231310 26 127 1.0 6.0 0.00 0.00 0.00 57 1022.1
20210306231104 26 41 2.0 6.0 0.00 0.00 0.00 56 1022.0
20210306230903 27 58 3.0 6.0 0.00 0.00 0.00 56 1022.1
20210306230706 27 73 1.0 7.0 0.00 0.00 0.00 56 1022.0
20210306230519 27 41 1.0 7.0 0.00 0.00 0.00 56 1022.1
20210306230302 27 148 1.0 8.0 0.00 0.00 0.00 56 1022.0
20210306225940 27 360 2.0 8.0 0.00 0.00 0.00 55 1022.0
20210306225856 27 50 3.0 8.0 0.00 0.00 0.00 55 1021.9
20210306225815 27 26 3.0 8.0 0.00 0.00 0.00 54 1021.9
20210306225730 28 86 2.0 5.0 0.00 0.00 0.00 54 1021.9
20210306225452 28 125 2.0 9.0 0.00 0.00 0.00 54 1021.8
20210306225041 28 71 2.0 9.0 0.00 0.00 0.00 54 1021.8
20210306224703 28 114 2.0 9.0 0.00 0.00 0.00 54 1021.7
20210306224459 28 140 2.0 9.0 0.00 0.00 0.00 54 1021.7
20210306224259 28 64 3.0 9.0 0.00 0.00 0.00 53 1021.7
20210306224104 28 28 3.0 8.0 0.00 0.00 0.00 53 1021.7
20210306223858 28 8 2.0 9.0 0.00 0.00 0.00 53 1021.7
20210306223658 28 78 2.0 9.0 0.00 0.00 0.00 52 1021.7
20210306223458 28 168 2.0 9.0 0.00 0.00 0.00 52 1021.7
20210306223259 28 138 4.0 9.0 0.00 0.00 0.00 51 1021.6
20210306223116 28 46 4.0 9.0 0.00 0.00 0.00 51 1021.6
20210306222941 29 119 2.0 9.0 0.00 0.00 0.00 51 1021.6
20210306222844 29 121 2.0 9.0 0.00 0.00 0.00 52 1021.5
20210306222819 29 80 4.0 9.0 0.00 0.00 0.00 52 1021.4
20210306222623 29 110 3.0 8.0 0.00 0.00 0.00 51 1021.4
20210306222026 29 143 3.0 8.0 0.00 0.00 0.00 51 1021.4
20210306221655 29 99 3.0 9.0 0.00 0.00 0.00 51 1021.3
20210306221254 30 46 5.0 9.0 0.00 0.00 0.00 50 1021.3
20210306221056 30 54 4.0 10.0 0.00 0.00 0.00 49 1021.3
20210306220859 30 16 3.0 10.0 0.00 0.00 0.00 50 1021.2
20210306220653 30 167 3.0 11.0 0.00 0.00 0.00 49 1021.2
20210306220453 30 100 3.0 11.0 0.00 0.00 0.00 49 1021.2
20210306220253 31 126 4.0 11.0 0.00 0.00 0.00 48 1021.1
20210306220052 31 97 4.0 11.0 0.00 0.00 0.00 48 1021.1
20210306215854 31 128 4.0 12.0 0.00 0.00 0.00 48 1021.1
20210306215824 32 68 3.0 12.0 0.00 0.00 0.00 48 1021.1
20210306215747 32 161 3.0 19.0 0.00 0.00 0.00 48 1021.1
20210306215546 32 148 4.0 19.0 0.00 0.00 0.00 49 1021.0
20210306214940 32 141 5.0 19.0 0.00 0.00 0.00 48 1021.1
20210306214652 32 86 5.0 19.0 0.00 0.00 0.00 48 1021.0
20210306214450 32 81 4.0 12.0 0.00 0.00 0.00 49 1021.0
20210306214251 32 97 4.0 12.0 0.00 0.00 0.00 48 1021.0
20210306214051 32 87 6.0 12.0 0.00 0.00 0.00 48 1021.1
20210306213854 32 77 5.0 14.0 0.00 0.00 0.00 48 1021.0
20210306213653 32 46 5.0 16.0 0.00 0.00 0.00 48 1021.0
20210306213448 32 51 5.0 16.0 0.00 0.00 0.00 48 1021.0
20210306213248 32 93 5.0 17.0 0.00 0.00 0.00 48 1021.0
20210306212943 32 119 5.0 17.0 0.00 0.00 0.00 48 1020.9
20210306212918 32 73 6.0 17.0 0.00 0.00 0.00 48 1021.0
20210306212842 32 63 5.0 17.0 0.00 0.00 0.00 49 1020.8
20210306212742 32 50 4.0 11.0 0.00 0.00 0.00 49 1020.8
20210306212440 32 98 4.0 11.0 0.00 0.00 0.00 49 1020.8
20210306211935 32 119 4.0 14.0 0.00 0.00 0.00 49 1020.9
20210306211700 32 70 5.0 14.0 0.00 0.00 0.00 49 1020.9
20210306211445 32 140 4.0 14.0 0.00 0.00 0.00 49 1021.0
20210306211100 33 150 4.0 10.0 0.00 0.00 0.00 48 1020.8
20210306210844 33 135 3.0 10.0 0.00 0.00 0.00 48 1020.9
20210306210643 33 72 2.0 7.0 0.00 0.00 0.00 48 1020.8
20210306210446 33 98 3.0 10.0 0.00 0.00 0.00 48 1020.8
20210306210244 33 113 4.0 10.0 0.00 0.00 0.00 48 1020.7
20210306210043 33 39 3.0 10.0 0.00 0.00 0.00 48 1020.7
20210306205847 33 36 4.0 16.0 0.00 0.00 0.00 48 1020.8
20210306205805 33 19 4.0 16.0 0.00 0.00 0.00 47 1020.7
20210306205727 33 33 4.0 16.0 0.00 0.00 0.00 48 1020.7
20210306205458 33 63 6.0 16.0 0.00 0.00 0.00 48 1020.7
20210306205223 33 98 5.0 16.0 0.00 0.00 0.00 47 1020.8
20210306204917 33 48 5.0 11.0 0.00 0.00 0.00 48 1020.8
20210306204640 33 154 6.0 11.0 0.00 0.00 0.00 47 1020.7
20210306204440 33 129 5.0 16.0 0.00 0.00 0.00 47 1020.7
20210306204244 33 46 5.0 16.0 0.00 0.00 0.00 48 1020.8
20210306204047 33 39 5.0 16.0 0.00 0.00 0.00 48 1020.6
20210306203842 33 48 5.0 16.0 0.00 0.00 0.00 48 1020.7
20210306203656 33 33 4.0 16.0 0.00 0.00 0.00 47 1020.7
20210306203438 33 355 3.0 14.0 0.00 0.00 0.00 49 1020.7
20210306203243 33 104 5.0 14.0 0.00 0.00 0.00 48 1020.7
20210306203037 33 105 5.0 14.0 0.00 0.00 0.00 48 1020.8
20210306202937 33 72 6.0 14.0 0.00 0.00 0.00 48 1020.7
20210306202909 33 107 6.0 14.0 0.00 0.00 0.00 47 1020.7
20210306202805 33 91 4.0 12.0 0.00 0.00 0.00 48 1020.7
20210306202423 33 81 4.0 11.0 0.00 0.00 0.00 49 1020.7
20210306201933 33 88 4.0 11.0 0.00 0.00 0.00 49 1020.6
20210306201644 33 106 5.0 11.0 0.00 0.00 0.00 48 1020.6
20210306201436 33 101 5.0 11.0 0.00 0.00 0.00 48 1020.7
20210306201234 33 89 4.0 11.0 0.00 0.00 0.00 49 1020.7
20210306201036 33 18 4.0 11.0 0.00 0.00 0.00 48 1020.6
20210306200835 32 143 4.0 11.0 0.00 0.00 0.00 49 1020.6
20210306200637 32 109 4.0 11.0 0.00 0.00 0.00 49 1020.7
20210306200434 32 107 4.0 11.0 0.00 0.00 0.00 48 1020.7
20210306200233 32 80 4.0 11.0 0.00 0.00 0.00 50 1020.6
20210306200041 32 81 5.0 11.0 0.00 0.00 0.00 49 1020.6
20210306195840 32 73 5.0 11.0 0.00 0.00 0.00 49 1020.7
20210306195822 32 87 5.0 11.0 0.00 0.00 0.00 50 1020.7
20210306195758 32 87 5.0 11.0 0.00 0.00 0.00 50 1020.8
20210306195444 32 35 6.0 11.0 0.00 0.00 0.00 49 1020.7
20210306195215 32 57 4.0 11.0 0.00 0.00 0.00 50 1020.7
20210306194844 32 77 5.0 11.0 0.00 0.00 0.00 50 1020.7
20210306194631 32 143 4.0 11.0 0.00 0.00 0.00 49 1020.7
20210306194435 32 108 3.0 10.0 0.00 0.00 0.00 50 1020.7
20210306194239 32 9 4.0 10.0 0.00 0.00 0.00 50 1020.7
20210306194044 32 119 3.0 10.0 0.00 0.00 0.00 50 1020.6
20210306193829 32 86 4.0 10.0 0.00 0.00 0.00 50 1020.7
20210306193633 32 96 4.0 10.0 0.00 0.00 0.00 50 1020.7
20210306193428 32 141 3.0 11.0 0.00 0.00 0.00 50 1020.7
20210306193228 32 109 4.0 11.0 0.00 0.00 0.00 50 1020.8
20210306193045 32 35 4.0 11.0 0.00 0.00 0.00 50 1020.7
20210306192831 32 77 5.0 11.0 0.00 0.00 0.00 50 1020.6
20210306192739 32 91 4.0 13.0 0.00 0.00 0.00 50 1020.7
20210306192528 32 87 5.0 13.0 0.00 0.00 0.00 50 1020.7
20210306192245 32 137 5.0 13.0 0.00 0.00 0.00 50 1020.6
20210306191856 32 103 5.0 15.0 0.00 0.00 0.00 50 1020.6
20210306191625 32 54 4.0 15.0 0.00 0.00 0.00 50 1020.6
20210306191427 31 71 5.0 15.0 0.00 0.00 0.00 50 1020.6
20210306191226 32 89 6.0 16.0 0.00 0.00 0.00 49 1020.7
20210306191030 32 79 6.0 16.0 0.00 0.00 0.00 48 1020.6
20210306190825 32 104 5.0 16.0 0.00 0.00 0.00 48 1020.6
20210306190623 32 28 6.0 16.0 0.00 0.00 0.00 49 1020.7
20210306190427 32 42 5.0 16.0 0.00 0.00 0.00 49 1020.6
20210306190224 32 52 4.0 10.0 0.00 0.00 0.00 49 1020.6
20210306190033 32 35 5.0 12.0 0.00 0.00 0.00 49 1020.7
20210306185920 32 77 5.0 12.0 0.00 0.00 0.00 49 1020.6
20210306185854 32 89 5.0 13.0 0.00 0.00 0.00 48 1020.7
20210306185812 32 31 5.0 13.0 0.00 0.00 0.00 49 1020.6
20210306185626 32 337 3.0 16.0 0.00 0.00 0.00 50 1020.6
20210306185319 31 88 5.0 16.0 0.00 0.00 0.00 48 1020.6
20210306185038 31 37 6.0 16.0 0.00 0.00 0.00 48 1020.6
20210306184625 32 76 6.0 16.0 0.00 0.00 0.00 49 1020.6
20210306184420 32 98 6.0 16.0 0.00 0.00 0.00 50 1020.6
20210306184219 32 84 4.0 18.0 0.00 0.00 0.00 50 1020.7
20210306184030 32 61 4.0 22.0 0.00 0.00 0.00 51 1020.6
20210306183818 32 72 4.0 22.0 0.00 0.00 0.00 51 1020.7
20210306183626 31 95 5.0 22.0 0.00 0.00 0.00 51 1020.7
20210306183416 31 119 7.0 22.0 0.00 0.00 0.00 50 1020.7
20210306183301 32 100 5.0 19.0 0.00 0.00 0.00 50 1020.7
20210306183200 31 163 4.0 11.0 0.00 0.00 0.00 52 1020.7
20210306183105 31 167 4.0 11.0 0.00 0.00 0.00 51 1020.7
20210306183028 31 151 5.0 11.0 0.00 0.00 0.00 52 1020.6
20210306182836 31 71 6.0 11.0 0.00 0.00 0.00 50 1020.6
20210306182641 32 142 3.0 9.0 0.00 0.00 0.00 51 1020.7
20210306182157 32 48 3.0 9.0 0.00 0.00 0.00 51 1020.7
20210306181412 31 59 4.0 12.0 0.00 0.00 0.00 51 1020.7
20210306181211 31 78 4.0 22.0 0.00 0.00 0.00 52 1020.7
20210306181026 31 121 4.0 22.0 0.00 0.00 0.00 52 1020.7
20210306180811 31 98 4.0 22.0 0.00 0.00 0.00 51 1020.7
20210306180610 31 135 6.0 22.0 0.00 0.00 0.00 51 1020.7
20210306180413 31 135 5.0 22.0 0.00 0.00 0.00 51 1020.9
20210306180028 31 146 5.0 12.0 0.00 0.00 0.00 51 1020.8
20210306175943 31 153 4.0 11.0 0.00 0.00 0.00 52 1020.9
20210306175908 31 112 4.0 10.0 0.00 0.00 0.00 53 1020.7
20210306175725 30 165 3.0 9.0 0.00 0.00 0.00 53 1020.8
20210306175339 30 88 4.0 9.0 0.00 0.00 0.00 53 1020.8
20210306174858 30 96 4.0 14.0 0.00 0.00 0.00 53 1020.8
20210306174608 30 106 4.0 14.0 0.00 0.00 0.00 53 1020.8
20210306174421 30 105 4.0 14.0 0.00 0.00 0.00 53 1020.9
20210306174029 30 55 6.0 14.0 0.00 0.00 0.00 53 1020.8
20210306173813 30 40 6.0 12.0 0.00 0.00 0.00 54 1020.8
20210306173605 30 104 5.0 11.0 0.00 0.00 0.00 54 1020.9
20210306173406 30 122 5.0 14.0 0.00 0.00 0.00 54 1020.8
20210306173207 30 173 5.0 14.0 0.00 0.00 0.00 53 1020.8
20210306173030 31 150 5.0 14.0 0.00 0.00 0.00 53 1020.8
20210306172953 30 120 5.0 14.0 0.00 0.00 0.00 53 1020.9
20210306172934 30 88 5.0 14.0 0.00 0.00 0.00 53 1020.8
20210306172901 30 149 5.0 12.0 0.00 0.00 0.00 53 1020.9
20210306172847 30 221 4.0 12.0 0.00 0.00 0.00 54 1020.9
20210306172451 30 59 4.0 12.0 0.00 0.00 0.00 55 1020.9
20210306172155 30 61 6.0 13.0 0.00 0.00 0.00 55 1020.9
20210306171603 30 71 5.0 13.0 0.00 0.00 0.00 55 1020.9
20210306171402 30 122 3.0 13.0 0.00 0.00 0.00 55 1020.9
20210306171205 30 101 4.0 13.0 0.00 0.00 0.00 56 1020.9
20210306171004 30 84 4.0 13.0 0.00 0.00 0.00 56 1020.9
20210306170805 30 137 3.0 10.0 0.00 0.00 0.00 57 1020.9
20210306170601 30 118 4.0 10.0 0.00 0.00 0.00 57 1020.9
20210306170445 30 100 4.0 12.0 0.00 0.00 0.00 57 1020.9
20210306170407 30 100 4.0 12.0 0.00 0.00 0.00 58 1020.9
20210306170307 29 115 5.0 12.0 0.00 0.00 0.00 58 1020.9
20210306170224 29 105 5.0 12.0 0.00 0.00 0.00 58 1020.9
20210306170132 29 160 3.0 11.0 0.00 0.00 0.00 58 1021.0
20210306165938 29 81 5.0 11.0 0.00 0.00 0.00 58 1021.0
20210306165843 29 19 4.0 11.0 0.00 0.00 0.00 59 1021.0
20210306165340 29 283 3.0 10.0 0.00 0.00 0.00 59 1021.0
20210306165023 29 346 3.0 10.0 0.00 0.00 0.00 59 1021.0
20210306164614 28 80 4.0 10.0 0.00 0.00 0.00 60 1021.0
20210306164354 28 88 4.0 10.0 0.00 0.00 0.00 59 1021.0
20210306164154 28 160 3.0 10.0 0.00 0.00 0.00 60 1021.0
20210306163954 28 154 4.0 10.0 0.00 0.00 0.00 59 1021.0
20210306163753 28 147 4.0 13.0 0.00 0.00 0.00 59 1021.0
20210306163602 28 111 4.0 13.0 0.00 0.00 0.00 58 1021.0
20210306163357 28 28 4.0 13.0 0.00 0.00 0.00 60 1021.0
20210306163153 28 44 5.0 13.0 0.00 0.00 0.00 60 1021.0
20210306162952 28 226 3.0 13.0 0.00 0.00 0.00 60 1021.0
20210306162858 28 196 3.0 8.0 0.00 0.00 0.00 60 1021.0
20210306162837 28 66 2.0 9.0 0.00 0.00 0.00 60 1021.0
20210306162624 28 13 2.0 9.0 0.00 0.00 0.00 61 1021.0
20210306162306 28 164 3.0 9.0 0.00 0.00 0.00 62 1021.0
20210306162032 28 126 3.0 9.0 0.00 0.00 0.00 62 1021.0
20210306161757 27 133 4.0 9.0 0.00 0.00 0.00 62 1020.9
20210306161633 27 121 4.0 13.0 0.00 0.00 0.00 61 1021.0
20210306161354 27 126 3.0 13.0 0.00 0.00 0.00 62 1021.0
20210306161149 27 129 2.0 13.0 0.00 0.00 0.00 62 1021.0
20210306160948 27 161 3.0 13.0 0.00 0.00 0.00 63 1021.0
20210306160750 27 139 4.0 13.0 0.00 0.00 0.00 62 1021.0
20210306160557 27 71 4.0 12.0 0.00 0.00 0.00 63 1021.0
20210306160347 26 12 4.0 12.0 0.00 0.00 0.00 63 1021.0
20210306160153 26 27 3.0 12.0 0.00 0.00 0.00 64 1021.0
20210306155956 26 76 3.0 10.0 0.00 0.00 0.00 64 1021.0
20210306155855 26 89 3.0 10.0 0.00 0.00 0.00 64 1021.0
20210306155819 26 111 3.0 12.0 0.00 0.00 0.00 64 1021.1
20210306155615 26 93 3.0 12.0 0.00 0.00 0.00 64 1021.0
20210306155058 26 171 4.0 12.0 0.00 0.00 0.00 64 1021.1
20210306154748 26 151 4.0 12.0 0.00 0.00 0.00 64 1021.0
20210306154545 26 122 4.0 10.0 0.00 0.00 0.00 64 1021.1
20210306154341 26 105 3.0 10.0 0.00 0.00 0.00 64 1021.1
20210306154141 26 92 2.0 9.0 0.00 0.00 0.00 64 1021.1
20210306153940 26 152 3.0 8.0 0.00 0.00 0.00 64 1021.0
20210306153542 26 74 3.0 9.0 0.00 0.00 0.00 64 1021.1
20210306153340 26 23 2.0 9.0 0.00 0.00 0.00 64 1021.0
20210306153139 26 37 2.0 9.0 0.00 0.00 0.00 65 1021.0
20210306152939 26 84 2.0 9.0 0.00 0.00 0.00 64 1021.1
20210306152819 26 125 2.0 9.0 0.00 0.00 0.00 65 1021.0
20210306152759 25 122 1.0 14.0 0.00 0.00 0.00 65 1021.0
20210306152652 25 84 2.0 14.0 0.00 0.00 0.00 65 1021.0
20210306152457 25 37 3.0 14.0 0.00 0.00 0.00 64 1021.0
20210306152203 25 14 5.0 14.0 0.00 0.00 0.00 65 1021.0
20210306151841 25 19 5.0 14.0 0.00 0.00 0.00 64 1020.9
20210306151541 25 69 4.0 11.0 0.00 0.00 0.00 64 1020.9
20210306151343 25 70 2.0 9.0 0.00 0.00 0.00 66 1021.0
20210306151141 25 106 1.0 7.0 0.00 0.00 0.00 66 1021.0
20210306150936 25 126 2.0 7.0 0.00 0.00 0.00 66 1021.0
20210306150741 25 131 2.0 7.0 0.00 0.00 0.00 67 1020.9
20210306150535 25 112 2.0 7.0 0.00 0.00 0.00 66 1020.9
20210306150338 25 124 2.0 7.0 0.00 0.00 0.00 67 1020.9
20210306150134 25 98 1.0 7.0 0.00 0.00 0.00 67 1020.8
20210306145934 25 136 1.0 7.0 0.00 0.00 0.00 67 1020.9
20210306145815 25 116 1.0 8.0 0.00 0.00 0.00 68 1020.9
20210306145749 25 193 2.0 8.0 0.00 0.00 0.00 67 1020.8
20210306145705 25 103 2.0 8.0 0.00 0.00 0.00 67 1020.9
20210306145444 25 73 2.0 8.0 0.00 0.00 0.00 67 1020.9
20210306145041 24 102 1.0 8.0 0.00 0.00 0.00 68 1021.0
20210306144759 24 73 2.0 7.0 0.00 0.00 0.00 68 1020.9
20210306144538 24 92 2.0 7.0 0.00 0.00 0.00 68 1021.0
20210306144342 24 104 0.0 6.0 0.00 0.00 0.00 69 1021.0
20210306143937 24 76 1.0 6.0 0.00 0.00 0.00 68 1021.0
20210306143730 24 49 1.0 6.0 0.00 0.00 0.00 68 1021.0
20210306143530 24 61 1.0 6.0 0.00 0.00 0.00 67 1021.0
20210306143331 24 46 1.0 5.0 0.00 0.00 0.00 67 1021.0
20210306143158 24 51 2.0 5.0 0.00 0.00 0.00 67 1021.0
20210306142931 24 96 2.0 5.0 0.00 0.00 0.00 67 1021.1
20210306142836 24 76 1.0 6.0 0.00 0.00 0.00 67 1021.0
20210306142808 24 105 1.0 6.0 0.00 0.00 0.00 67 1021.0
20210306142733 24 120 1.0 6.0 0.00 0.00 0.00 67 1021.0
20210306142444 24 80 1.0 6.0 0.00 0.00 0.00 67 1021.0
20210306142041 24 117 2.0 6.0 0.00 0.00 0.00 66 1020.9
20210306141730 24 41 2.0 6.0 0.00 0.00 0.00 66 1020.9
20210306141539 24 34 1.0 6.0 0.00 0.00 0.00 67 1021.0
20210306141334 24 89 1.0 6.0 0.00 0.00 0.00 66 1020.9
20210306141130 24 101 1.0 5.0 0.00 0.00 0.00 66 1020.9
20210306140926 24 124 2.0 5.0 0.00 0.00 0.00 66 1021.0
20210306140725 24 157 1.0 5.0 0.00 0.00 0.00 66 1020.9
20210306140326 24 103 2.0 8.0 0.00 0.00 0.00 66 1020.9
20210306140125 24 98 1.0 8.0 0.00 0.00 0.00 66 1021.0
20210306135926 24 116 0.0 8.0 0.00 0.00 0.00 66 1021.0
20210306135849 23 171 1.0 8.0 0.00 0.00 0.00 66 1021.0
20210306135809 23 155 2.0 8.0 0.00 0.00 0.00 66 1020.9
20210306135650 23 341 1.0 6.0 0.00 0.00 0.00 66 1021.0
20210306135335 23 289 2.0 5.0 0.00 0.00 0.00 66 1021.0
20210306134948 23 152 2.0 5.0 0.00 0.00 0.00 66 1020.9
20210306134551 23 244 1.0 4.0 0.00 0.00 0.00 67 1021.0
20210306134321 23 133 1.0 4.0 0.00 0.00 0.00 66 1021.0
20210306134121 23 270 1.0 4.0 0.00 0.00 0.00 66 1020.9
20210306133921 23 343 1.0 4.0 0.00 0.00 0.00 66 1021.0
20210306133720 23 38 1.0 5.0 0.00 0.00 0.00 67 1021.0
20210306133538 23 308 1.0 5.0 0.00 0.00 0.00 67 1021.0
20210306133321 22 69 2.0 5.0 0.00 0.00 0.00 67 1021.0
20210306133234 22 48 1.0 5.0 0.00 0.00 0.00 67 1021.1
20210306133155 22 52 1.0 6.0 0.00 0.00 0.00 67 1021.0
20210306133136 22 118 1.0 6.0 0.00 0.00 0.00 67 1021.0
20210306133044 22 89 1.0 7.0 0.00 0.00 0.00 67 1021.0
20210306132933 22 39 1.0 7.0 0.00 0.00 0.00 67 1021.0
20210306132447 22 152 1.0 7.0 0.00 0.00 0.00 67 1021.0
20210306132011 22 118 1.0 7.0 0.00 0.00 0.00 67 1021.0
20210306131719 22 87 1.0 7.0 0.00 0.00 0.00 67 1021.0
20210306131535 22 115 1.0 6.0 0.00 0.00 0.00 67 1021.0
20210306131318 22 120 1.0 6.0 0.00 0.00 0.00 67 1020.9
20210306130916 22 37 1.0 7.0 0.00 0.00 0.00 68 1020.9
20210306130723 22 351 1.0 7.0 0.00 0.00 0.00 68 1020.9
20210306130527 22 110 2.0 7.0 0.00 0.00 0.00 68 1020.8
20210306130237 22 152 0.0 5.0 0.00 0.00 0.00 68 1020.8
20210306130129 22 115 2.0 5.0 0.00 0.00 0.00 68 1020.8
20210306130056 21 162 2.0 5.0 0.00 0.00 0.00 68 1020.7
20210306125949 21 178 2.0 5.0 0.00 0.00 0.00 68 1020.7
20210306125853 21 172 1.0 5.0 0.00 0.00 0.00 69 1020.7
20210306125625 21 121 2.0 5.0 0.00 0.00 0.00 68 1020.6
20210306125047 21 106 2.0 5.0 0.00 0.00 0.00 69 1020.7
20210306124713 21 116 0.0 5.0 0.00 0.00 0.00 69 1020.6
20210306124521 21 155 1.0 5.0 0.00 0.00 0.00 68 1020.6
20210306124311 21 136 0.0 5.0 0.00 0.00 0.00 69 1020.6
20210306124111 21 127 1.0 5.0 0.00 0.00 0.00 68 1020.6
20210306123913 21 163 1.0 5.0 0.00 0.00 0.00 69 1020.6
20210306123522 21 95 1.0 5.0 0.00 0.00 0.00 68 1020.5
20210306123313 21 160 1.0 5.0 0.00 0.00 0.00 68 1020.4
20210306123133 21 142 1.0 5.0 0.00 0.00 0.00 68 1020.4
20210306123035 21 128 1.0 5.0 0.00 0.00 0.00 69 1020.4
20210306122942 21 157 1.0 3.0 0.00 0.00 0.00 68 1020.3
20210306122909 21 121 0.0 3.0 0.00 0.00 0.00 69 1020.4
20210306122832 21 227 1.0 3.0 0.00 0.00 0.00 69 1020.4
20210306122640 21 223 0.0 2.0 0.00 0.00 0.00 69 1020.3
20210306122151 21 212 0.0 2.0 0.00 0.00 0.00 69 1020.3
20210306121522 21 267 0.0 2.0 0.00 0.00 0.00 69 1020.3
20210306121306 21 62 0.0 2.0 0.00 0.00 0.00 69 1020.3
20210306121106 21 167 0.0 2.0 0.00 0.00 0.00 70 1020.3
20210306120705 21 198 0.0 2.0 0.00 0.00 0.00 69 1020.3
20210306120515 21 54 0.0 3.0 0.00 0.00 0.00 70 1020.2
20210306120309 20 60 0.0 3.0 0.00 0.00 0.00 70 1020.3
20210306115953 20 8 0.0 3.0 0.00 0.00 0.00 70 1020.2
20210306115924 20 299 0.0 3.0 0.00 0.00 0.00 70 1020.1
20210306115851 20 198 0.0 3.0 0.00 0.00 0.00 70 1020.3
20210306115534 20 65 0.0 3.0 0.00 0.00 0.00 70 1020.2
20210306115115 20 55 0.0 3.0 0.00 0.00 0.00 70 1020.2
20210306114702 20 19 0.0 3.0 0.00 0.00 0.00 70 1020.1
20210306114303 20 17 0.0 2.0 0.00 0.00 0.00 70 1020.1
20210306114101 20 339 0.0 3.0 0.00 0.00 0.00 70 1020.1
20210306113941 20 93 0.0 5.0 0.00 0.00 0.00 69 1020.1
20210306113738 20 48 1.0 5.0 0.00 0.00 0.00 69 1020.1
20210306113652 20 16 1.0 5.0 0.00 0.00 0.00 69 1020.1
20210306113538 20 30 1.0 5.0 0.00 0.00 0.00 70 1020.0
20210306113306 20 31 0.0 3.0 0.00 0.00 0.00 70 1020.1
20210306113212 20 342 1.0 4.0 0.00 0.00 0.00 70 1020.1
20210306113111 20 32 1.0 4.0 0.00 0.00 0.00 70 1020.1
20210306113038 20 350 0.0 4.0 0.00 0.00 0.00 70 1020.0
20210306112844 20 4 1.0 4.0 0.00 0.00 0.00 70 1019.9
20210306112206 20 41 0.0 4.0 0.00 0.00 0.00 70 1019.9
20210306111659 20 84 0.0 3.0 0.00 0.00 0.00 70 1019.9
20210306111459 20 66 1.0 3.0 0.00 0.00 0.00 70 1019.9
20210306111303 20 15 1.0 3.0 0.00 0.00 0.00 70 1019.9
20210306111058 20 11 1.0 3.0 0.00 0.00 0.00 70 1019.8
20210306110857 20 347 0.0 3.0 0.00 0.00 0.00 70 1019.8
20210306110704 20 333 0.0 4.0 0.00 0.00 0.00 70 1019.8
20210306110626 20 333 0.0 4.0 0.00 0.00 0.00 70 1019.8
20210306110556 20 38 0.0 4.0 0.00 0.00 0.00 70 1019.8
20210306110441 20 30 1.0 4.0 0.00 0.00 0.00 69 1019.8
20210306110247 20 38 1.0 4.0 0.00 0.00 0.00 69 1019.8
20210306110116 20 51 0.0 2.0 0.00 0.00 0.00 70 1019.8
20210306110021 20 37 0.0 3.0 0.00 0.00 0.00 70 1019.8
20210306105906 20 42 0.0 3.0 0.00 0.00 0.00 70 1019.8
20210306105438 20 41 0.0 3.0 0.00 0.00 0.00 69 1019.7
20210306105106 20 28 1.0 7.0 0.00 0.00 0.00 69 1019.7
20210306104713 20 35 0.0 7.0 0.00 0.00 0.00 69 1019.7
20210306104452 20 25 0.0 7.0 0.00 0.00 0.00 69 1019.6
20210306104253 20 9 1.0 7.0 0.00 0.00 0.00 69 1019.5
20210306104056 20 30 2.0 7.0 0.00 0.00 0.00 69 1019.6
20210306103910 20 29 1.0 4.0 0.00 0.00 0.00 70 1019.6
20210306103453 20 43 0.0 4.0 0.00 0.00 0.00 70 1019.6
20210306103250 20 36 1.0 4.0 0.00 0.00 0.00 70 1019.5
20210306103128 20 17 0.0 5.0 0.00 0.00 0.00 70 1019.5
20210306102926 20 357 1.0 5.0 0.00 0.00 0.00 69 1019.4
20210306102852 20 10 1.0 5.0 0.00 0.00 0.00 69 1019.4
20210306102816 20 25 1.0 6.0 0.00 0.00 0.00 69 1019.4
20210306102547 20 20 2.0 7.0 0.00 0.00 0.00 69 1019.4
20210306102248 20 22 2.0 9.0 0.00 0.00 0.00 69 1019.4
20210306101927 20 22 3.0 9.0 0.00 0.00 0.00 69 1019.5
20210306101657 21 27 3.0 9.0 0.00 0.00 0.00 68 1019.5
20210306101447 21 37 3.0 9.0 0.00 0.00 0.00 68 1019.5
20210306101243 21 40 4.0 13.0 0.00 0.00 0.00 68 1019.5
20210306101043 21 36 3.0 13.0 0.00 0.00 0.00 68 1019.5
20210306100849 21 33 3.0 13.0 0.00 0.00 0.00 68 1019.5
20210306100645 21 16 5.0 13.0 0.00 0.00 0.00 68 1019.5
20210306100442 21 12 4.0 13.0 0.00 0.00 0.00 68 1019.5
20210306100343 21 29 3.0 10.0 0.00 0.00 0.00 68 1019.6
20210306100211 21 26 2.0 10.0 0.00 0.00 0.00 68 1019.5
20210306100124 21 31 2.0 9.0 0.00 0.00 0.00 68 1019.5
20210306100038 21 37 3.0 9.0 0.00 0.00 0.00 68 1019.4
20210306095931 21 16 2.0 9.0 0.00 0.00 0.00 69 1019.4
20210306095731 21 32 2.0 7.0 0.00 0.00 0.00 69 1019.5
20210306095359 21 31 3.0 7.0 0.00 0.00 0.00 68 1019.4
20210306095024 21 19 3.0 7.0 0.00 0.00 0.00 69 1019.4
20210306094656 21 25 2.0 9.0 0.00 0.00 0.00 69 1019.4
20210306094441 21 20 3.0 9.0 0.00 0.00 0.00 68 1019.4
20210306094245 22 28 3.0 9.0 0.00 0.00 0.00 68 1019.3
20210306094041 21 30 4.0 9.0 0.00 0.00 0.00 68 1019.4
20210306093843 22 25 2.0 9.0 0.00 0.00 0.00 68 1019.3
20210306093638 22 30 3.0 8.0 0.00 0.00 0.00 68 1019.3
20210306093237 22 20 2.0 8.0 0.00 0.00 0.00 68 1019.3
20210306093037 22 26 2.0 11.0 0.00 0.00 0.00 68 1019.2
20210306092916 22 26 4.0 11.0 0.00 0.00 0.00 68 1019.2
20210306092901 22 40 4.0 11.0 0.00 0.00 0.00 68 1019.2
20210306092817 22 42 3.0 11.0 0.00 0.00 0.00 68 1019.2
20210306092707 22 31 3.0 11.0 0.00 0.00 0.00 68 1019.2
20210306092350 22 28 2.0 7.0 0.00 0.00 0.00 68 1019.2
20210306091906 22 15 2.0 8.0 0.00 0.00 0.00 68 1019.3
20210306091644 22 23 3.0 14.0 0.00 0.00 0.00 68 1019.2
20210306091450 22 33 3.0 14.0 0.00 0.00 0.00 68 1019.2
20210306091036 22 43 4.0 14.0 0.00 0.00 0.00 69 1019.2
20210306090845 22 20 2.0 10.0 0.00 0.00 0.00 69 1019.2
20210306090633 22 24 2.0 10.0 0.00 0.00 0.00 69 1019.2
20210306090436 22 26 3.0 10.0 0.00 0.00 0.00 69 1019.2
20210306090335 22 23 2.0 10.0 0.00 0.00 0.00 69 1019.1
20210306090251 22 16 2.0 8.0 0.00 0.00 0.00 69 1019.1
20210306090220 22 21 1.0 8.0 0.00 0.00 0.00 69 1019.1
20210306090111 22 24 2.0 10.0 0.00 0.00 0.00 69 1019.1
20210306090023 22 51 2.0 10.0 0.00 0.00 0.00 68 1019.1
20210306084855 22 41 4.0 11.0 0.00 0.00 0.00 68 1019.2
20210306084629 22 32 3.0 11.0 0.00 0.00 0.00 68 1019.1
20210306084428 22 42 3.0 11.0 0.00 0.00 0.00 68 1019.2
20210306084228 22 71 3.0 11.0 0.00 0.00 0.00 68 1019.2
20210306084034 22 68 3.0 11.0 0.00 0.00 0.00 67 1019.1
20210306083827 22 32 3.0 8.0 0.00 0.00 0.00 67 1019.1
20210306083724 22 37 3.0 8.0 0.00 0.00 0.00 67 1019.0
20210306083427 22 14 2.0 8.0 0.00 0.00 0.00 67 1019.1
20210306083226 22 7 2.0 10.0 0.00 0.00 0.00 67 1019.1
20210306083117 22 18 2.0 10.0 0.00 0.00 0.00 68 1019.0
20210306083053 22 22 2.0 10.0 0.00 0.00 0.00 68 1019.0
20210306083031 23 16 2.0 10.0 0.00 0.00 0.00 68 1019.0
20210306082906 22 20 3.0 10.0 0.00 0.00 0.00 68 1018.9
20210306082845 23 22 4.0 8.0 0.00 0.00 0.00 68 1018.9
20210306082513 23 27 3.0 13.0 0.00 0.00 0.00 68 1019.0
20210306082147 23 31 2.0 13.0 0.00 0.00 0.00 67 1018.9
20210306081632 23 48 2.0 13.0 0.00 0.00 0.00 68 1018.9
20210306081425 23 37 5.0 13.0 0.00 0.00 0.00 67 1018.9
20210306081223 23 36 4.0 13.0 0.00 0.00 0.00 67 1018.9
20210306081031 23 27 3.0 10.0 0.00 0.00 0.00 67 1018.9
20210306080823 23 15 3.0 10.0 0.00 0.00 0.00 67 1018.9
20210306080632 23 18 4.0 12.0 0.00 0.00 0.00 67 1018.9
20210306080424 23 26 5.0 12.0 0.00 0.00 0.00 67 1018.8
20210306080221 23 23 3.0 12.0 0.00 0.00 0.00 68 1018.8
20210306080105 23 31 4.0 12.0 0.00 0.00 0.00 68 1018.8
20210306080000 23 38 4.0 12.0 0.00 0.00 0.00 70 1018.7
20210306075936 24 31 5.0 10.0 0.00 0.00 0.00 70 1018.7
20210306075904 24 11 3.0 10.0 0.00 0.00 0.00 71 1018.6
20210306075816 24 26 3.0 9.0 0.00 0.00 0.00 71 1018.6
20210306075602 24 26 3.0 6.0 0.00 0.00 0.00 70 1018.5
20210306075220 24 34 2.0 6.0 0.00 0.00 0.00 70 1018.5
20210306074620 24 32 2.0 6.0 0.00 0.00 0.00 70 1018.5
20210306074415 24 42 2.0 8.0 0.00 0.00 0.00 70 1018.6
20210306074216 24 18 1.0 8.0 0.00 0.00 0.00 70 1018.5
20210306074022 24 18 1.0 8.0 0.00 0.00 0.00 70 1018.5
20210306073820 24 17 2.0 8.0 0.00 0.00 0.00 70 1018.5
20210306073614 24 33 4.0 8.0 0.00 0.00 0.00 69 1018.5
20210306073415 24 31 4.0 8.0 0.00 0.00 0.00 69 1018.5
20210306073241 24 29 3.0 11.0 0.00 0.00 0.00 70 1018.5
20210306073140 24 18 2.0 13.0 0.00 0.00 0.00 70 1018.4
20210306073055 24 32 3.0 13.0 0.00 0.00 0.00 70 1018.5
20210306072953 24 36 4.0 13.0 0.00 0.00 0.00 70 1018.4
20210306072910 24 32 6.0 13.0 0.00 0.00 0.00 70 1018.5
20210306072803 24 27 5.0 13.0 0.00 0.00 0.00 71 1018.4
20210306072432 24 35 3.0 7.0 0.00 0.00 0.00 72 1018.4
20210306072054 24 355 2.0 7.0 0.00 0.00 0.00 73 1018.4
20210306071612 24 352 2.0 7.0 0.00 0.00 0.00 73 1018.4
20210306071411 24 41 2.0 7.0 0.00 0.00 0.00 74 1018.4
20210306071214 24 36 2.0 7.0 0.00 0.00 0.00 74 1018.4
20210306071031 24 24 0.0 5.0 0.00 0.00 0.00 74 1018.4
20210306070810 24 35 1.0 5.0 0.00 0.00 0.00 74 1018.3
20210306070614 24 40 1.0 5.0 0.00 0.00 0.00 75 1018.3
20210306070409 24 38 2.0 6.0 0.00 0.00 0.00 74 1018.3
20210306070211 24 27 2.0 6.0 0.00 0.00 0.00 75 1018.3
20210306070031 24 22 2.0 6.0 0.00 0.00 0.00 75 1018.2
20210306065924 24 16 2.0 6.0 0.00 0.00 0.00 75 1018.3
20210306065855 24 21 1.0 6.0 0.00 0.00 0.00 75 1018.3
20210306065805 24 17 0.0 6.0 0.00 0.00 0.00 76 1018.3
20210306065643 24 15 1.0 6.0 0.00 0.00 0.00 76 1018.3
20210306065245 24 51 2.0 6.0 0.00 0.00 0.00 75 1018.2
20210306064825 24 49 2.0 6.0 0.00 0.00 0.00 76 1018.2
20210306064610 24 39 1.0 6.0 0.00 0.00 0.00 76 1018.2
20210306064409 24 47 3.0 11.0 0.00 0.00 0.00 75 1018.2
20210306064026 24 50 2.0 11.0 0.00 0.00 0.00 75 1018.2
20210306063804 24 33 4.0 11.0 0.00 0.00 0.00 75 1018.2
20210306063605 24 47 2.0 7.0 0.00 0.00 0.00 76 1018.2
20210306063406 24 36 1.0 10.0 0.00 0.00 0.00 76 1018.2
20210306063316 24 18 2.0 10.0 0.00 0.00 0.00 76 1018.1
20210306063120 25 37 2.0 10.0 0.00 0.00 0.00 76 1018.1
20210306063042 25 43 3.0 17.0 0.00 0.00 0.00 76 1017.8
20210306062950 25 24 2.0 17.0 0.00 0.00 0.00 76 1017.9
20210306062920 25 32 3.0 17.0 0.00 0.00 0.00 76 1018.0
20210306062751 25 35 6.0 17.0 0.00 0.00 0.00 76 1018.0
20210306062450 25 29 6.0 17.0 0.00 0.00 0.00 76 1018.0
20210306061600 25 40 5.0 13.0 0.00 0.00 0.00 76 1017.9
20210306061400 25 36 6.0 13.0 0.00 0.00 0.00 75 1017.9
20210306061202 25 37 5.0 13.0 0.00 0.00 0.00 75 1018.0
20210306061000 25 42 5.0 10.0 0.00 0.00 0.00 75 1017.9
20210306060759 25 62 3.0 10.0 0.00 0.00 0.00 75 1017.9
20210306060559 25 54 2.0 11.0 0.00 0.00 0.00 75 1017.9
20210306060412 25 41 4.0 11.0 0.00 0.00 0.00 75 1017.9
20210306060159 26 47 4.0 11.0 0.00 0.00 0.00 75 1017.9
20210306060038 26 45 4.0 11.0 0.00 0.00 0.00 75 1017.9
20210306055930 26 56 4.0 11.0 0.00 0.00 0.00 75 1017.8
20210306055831 26 42 4.0 10.0 0.00 0.00 0.00 75 1017.7
20210306055811 26 42 3.0 10.0 0.00 0.00 0.00 75 1017.7
20210306055336 26 38 3.0 7.0 0.00 0.00 0.00 75 1017.7
20210306054919 26 38 3.0 13.0 0.00 0.00 0.00 75 1017.7
20210306054355 26 27 3.0 13.0 0.00 0.00 0.00 74 1017.6
20210306053957 26 28 4.0 13.0 0.00 0.00 0.00 74 1017.6
20210306053755 26 27 4.0 13.0 0.00 0.00 0.00 75 1017.6
20210306053558 26 23 4.0 13.0 0.00 0.00 0.00 75 1017.6
20210306053355 26 33 3.0 13.0 0.00 0.00 0.00 76 1017.6
20210306053158 26 35 3.0 13.0 0.00 0.00 0.00 76 1017.6
20210306053025 26 29 2.0 13.0 0.00 0.00 0.00 76 1017.6
20210306052945 26 34 3.0 10.0 0.00 0.00 0.00 76 1017.6
20210306052918 26 36 3.0 10.0 0.00 0.00 0.00 76 1017.5
20210306052840 26 28 2.0 10.0 0.00 0.00 0.00 76 1017.5
20210306052619 26 35 3.0 10.0 0.00 0.00 0.00 76 1017.6
20210306052314 26 32 4.0 10.0 0.00 0.00 0.00 76 1017.5
20210306051909 27 41 3.0 10.0 0.00 0.00 0.00 76 1017.5
20210306051601 27 44 3.0 10.0 0.00 0.00 0.00 75 1017.5
20210306051351 27 31 3.0 10.0 0.00 0.00 0.00 75 1017.6
20210306051147 27 29 4.0 10.0 0.00 0.00 0.00 74 1017.6
20210306050951 27 32 4.0 10.0 0.00 0.00 0.00 73 1017.6
20210306050748 27 34 4.0 9.0 0.00 0.00 0.00 72 1017.5
20210306050555 27 46 2.0 9.0 0.00 0.00 0.00 72 1017.6
20210306050355 27 60 2.0 6.0 0.00 0.00 0.00 72 1017.6
20210306050227 27 54 2.0 6.0 0.00 0.00 0.00 72 1017.5
20210306050141 27 27 2.0 7.0 0.00 0.00 0.00 72 1017.5
20210306045957 27 9 2.0 7.0 0.00 0.00 0.00 72 1017.5
20210306045912 27 68 2.0 15.0 0.00 0.00 0.00 72 1017.5
20210306045416 27 31 2.0 15.0 0.00 0.00 0.00 71 1017.4
20210306045025 27 50 3.0 15.0 0.00 0.00 0.00 71 1017.3
20210306044801 27 83 2.0 7.0 0.00 0.00 0.00 71 1017.3
20210306044543 27 9 3.0 8.0 0.00 0.00 0.00 71 1017.3
20210306044342 27 77 3.0 9.0 0.00 0.00 0.00 70 1017.3
20210306044142 27 8 2.0 9.0 0.00 0.00 0.00 70 1017.3
20210306043941 27 27 3.0 9.0 0.00 0.00 0.00 70 1017.3
20210306043743 27 43 2.0 9.0 0.00 0.00 0.00 70 1017.3
20210306043542 27 41 2.0 9.0 0.00 0.00 0.00 69 1017.3
20210306043340 27 61 4.0 9.0 0.00 0.00 0.00 69 1017.2
20210306043147 27 92 3.0 9.0 0.00 0.00 0.00 69 1017.2
20210306042940 27 50 2.0 7.0 0.00 0.00 0.00 69 1017.2
20210306042851 27 46 2.0 10.0 0.00 0.00 0.00 69 1017.2
20210306042822 27 22 3.0 10.0 0.00 0.00 0.00 68 1017.3
20210306042737 27 2 3.0 10.0 0.00 0.00 0.00 68 1017.1
20210306042529 27 48 3.0 12.0 0.00 0.00 0.00 68 1017.1
20210306042055 27 89 3.0 12.0 0.00 0.00 0.00 68 1017.1
20210306041756 27 104 2.0 12.0 0.00 0.00 0.00 68 1017.2
20210306041338 27 28 3.0 12.0 0.00 0.00 0.00 68 1017.1
20210306040937 27 1 3.0 9.0 0.00 0.00 0.00 67 1017.1
20210306040736 28 91 4.0 9.0 0.00 0.00 0.00 67 1017.1
20210306040547 28 82 2.0 9.0 0.00 0.00 0.00 67 1017.1
20210306040337 28 54 3.0 10.0 0.00 0.00 0.00 67 1017.1
20210306040138 28 326 3.0 10.0 0.00 0.00 0.00 67 1017.1
20210306035935 28 68 4.0 10.0 0.00 0.00 0.00 66 1017.1
20210306035753 28 55 4.0 8.0 0.00 0.00 0.00 66 1017.0
20210306035542 28 100 3.0 8.0 0.00 0.00 0.00 66 1017.1
20210306035234 28 64 3.0 9.0 0.00 0.00 0.00 66 1017.1
20210306035000 28 77 3.0 11.0 0.00 0.00 0.00 66 1017.2
20210306034742 28 66 3.0 11.0 0.00 0.00 0.00 66 1017.1
20210306034548 28 197 3.0 11.0 0.00 0.00 0.00 66 1017.0
20210306034332 28 82 4.0 11.0 0.00 0.00 0.00 65 1017.1
20210306034136 28 81 5.0 11.0 0.00 0.00 0.00 65 1017.0
20210306033731 28 60 3.0 10.0 0.00 0.00 0.00 65 1017.0
20210306033531 28 63 4.0 10.0 0.00 0.00 0.00 65 1017.1
20210306033332 28 25 2.0 10.0 0.00 0.00 0.00 65 1017.0
20210306033132 28 14 2.0 9.0 0.00 0.00 0.00 65 1017.0
20210306033025 28 65 3.0 9.0 0.00 0.00 0.00 65 1017.0
20210306032943 28 83 4.0 9.0 0.00 0.00 0.00 65 1017.0
20210306032921 28 335 3.0 10.0 0.00 0.00 0.00 65 1017.0
20210306032905 28 360 3.0 10.0 0.00 0.00 0.00 65 1017.0
20210306032801 28 123 3.0 10.0 0.00 0.00 0.00 64 1017.0
20210306032230 28 108 5.0 10.0 0.00 0.00 0.00 64 1017.0
20210306031741 28 99 4.0 10.0 0.00 0.00 0.00 64 1017.0
20210306031552 28 132 3.0 9.0 0.00 0.00 0.00 64 1017.0
20210306031327 28 122 3.0 9.0 0.00 0.00 0.00 64 1017.1
20210306031127 28 111 3.0 10.0 0.00 0.00 0.00 64 1017.1
20210306030927 28 90 4.0 10.0 0.00 0.00 0.00 64 1017.1
20210306030727 28 82 3.0 10.0 0.00 0.00 0.00 64 1017.2
20210306030544 28 85 4.0 16.0 0.00 0.00 0.00 63 1017.2
20210306030329 28 72 4.0 16.0 0.00 0.00 0.00 64 1017.1
20210306030222 28 111 3.0 16.0 0.00 0.00 0.00 64 1017.2
20210306030138 28 17 3.0 16.0 0.00 0.00 0.00 64 1017.2
20210306030038 28 91 3.0 9.0 0.00 0.00 0.00 64 1017.1
20210306025910 29 74 4.0 14.0 0.00 0.00 0.00 63 1017.1
20210306025805 29 72 4.0 14.0 0.00 0.00 0.00 63 1017.1
20210306025237 29 97 4.0 14.0 0.00 0.00 0.00 63 1017.1
20210306024844 29 83 6.0 14.0 0.00 0.00 0.00 63 1017.1
20210306024540 29 109 4.0 12.0 0.00 0.00 0.00 63 1017.0
20210306024326 29 32 2.0 10.0 0.00 0.00 0.00 63 1017.0
20210306024122 29 88 4.0 10.0 0.00 0.00 0.00 62 1017.1
20210306023925 29 63 4.0 10.0 0.00 0.00 0.00 62 1017.1
20210306023723 29 68 3.0 10.0 0.00 0.00 0.00 62 1017.1
20210306023528 29 101 4.0 10.0 0.00 0.00 0.00 62 1017.1
20210306023321 29 56 4.0 9.0 0.00 0.00 0.00 62 1017.0
20210306023122 29 101 3.0 9.0 0.00 0.00 0.00 62 1017.1
20210306022923 29 102 3.0 15.0 0.00 0.00 0.00 62 1017.1
20210306022802 29 102 3.0 15.0 0.00 0.00 0.00 62 1017.1
20210306022748 29 121 5.0 15.0 0.00 0.00 0.00 61 1017.1
20210306022535 29 114 5.0 15.0 0.00 0.00 0.00 61 1017.1
20210306022400 29 116 5.0 15.0 0.00 0.00 0.00 61 1017.0
20210306022029 29 122 5.0 13.0 0.00 0.00 0.00 61 1017.0
20210306021735 29 127 6.0 13.0 0.00 0.00 0.00 61 1017.0
20210306021532 29 173 4.0 13.0 0.00 0.00 0.00 61 1017.1
20210306021322 29 79 5.0 11.0 0.00 0.00 0.00 61 1017.1
20210306021120 29 47 3.0 11.0 0.00 0.00 0.00 61 1017.1
20210306020918 29 59 4.0 9.0 0.00 0.00 0.00 61 1017.1
20210306020726 29 57 3.0 9.0 0.00 0.00 0.00 61 1017.1
20210306020528 29 151 2.0 9.0 0.00 0.00 0.00 61 1017.1
20210306020316 29 147 3.0 10.0 0.00 0.00 0.00 61 1017.1
20210306020202 29 70 3.0 10.0 0.00 0.00 0.00 61 1017.1
20210306020121 29 34 2.0 13.0 0.00 0.00 0.00 62 1017.1
20210306020058 30 56 3.0 13.0 0.00 0.00 0.00 61 1017.1
20210306020037 30 73 4.0 13.0 0.00 0.00 0.00 61 1017.0
20210306015853 30 69 4.0 13.0 0.00 0.00 0.00 61 1017.1
20210306015613 30 99 4.0 13.0 0.00 0.00 0.00 61 1017.1
20210306014734 30 15 4.0 12.0 0.00 0.00 0.00 61 1017.0
20210306014531 30 55 3.0 12.0 0.00 0.00 0.00 61 1016.9